ACA1344 CYHZ-MYNN

Flight info

Callsign ACA1344
Flight time N/A
Altitude 34000
Route KEVLU DCT AVAST/M077F340 DCT DRYED DCT LSIER DCT FLUPS DCT MAPYL/N0454F340 G437 ZQA
Aircraft B738/M-SDE2E3FGHIRWXY/LB1

Departure

Time 2026-05-06 17:28
Airport Halifax / Stanfield International Airport (CYHZ)

Arrival

Time N/A
Airport Lynden Pindling International Airport (MYNN)
Time Latitude Longitude Altitude Speed Heading
2026-05-06 16:50 44.88855 -63.51422 451 ft 0 kts 239°
2026-05-06 16:51 44.88854 -63.51424 451 ft 0 kts 239°
2026-05-06 17:17 44.88863 -63.51403 451 ft 4 kts 239°
2026-05-06 17:17 44.88874 -63.51378 451 ft 4 kts 239°
2026-05-06 17:17 44.88886 -63.51349 451 ft 1 kts 239°
2026-05-06 17:17 44.88897 -63.51324 451 ft 1 kts 239°
2026-05-06 17:18 44.88897 -63.51323 451 ft 0 kts 239°
2026-05-06 17:21 44.88890 -63.51335 451 ft 4 kts 223°
2026-05-06 17:21 44.88847 -63.51323 451 ft 10 kts 149°
2026-05-06 17:21 44.88785 -63.51284 451 ft 10 kts 168°
2026-05-06 17:22 44.88713 -63.51264 451 ft 11 kts 156°
2026-05-06 17:22 44.88696 -63.51156 451 ft 13 kts 78°
2026-05-06 17:22 44.88716 -63.51016 451 ft 16 kts 80°
2026-05-06 17:22 44.88767 -63.50883 450 ft 16 kts 39°
2026-05-06 17:23 44.88854 -63.50795 449 ft 15 kts 36°
2026-05-06 17:23 44.88935 -63.50714 449 ft 12 kts 35°
2026-05-06 17:23 44.88997 -63.50650 450 ft 10 kts 48°
2026-05-06 17:23 44.89004 -63.50597 450 ft 0 kts 108°
2026-05-06 17:26 44.89004 -63.50595 450 ft 1 kts 108°
2026-05-06 17:26 44.88984 -63.50546 450 ft 9 kts 124°
2026-05-06 17:26 44.88938 -63.50452 450 ft 13 kts 129°
2026-05-06 17:26 44.88872 -63.50448 450 ft 0 kts 212°
2026-05-06 17:27 44.88813 -63.50505 450 ft 34 kts 214°
2026-05-06 17:27 44.88431 -63.50883 451 ft 100 kts 215°
2026-05-06 17:27 44.87732 -63.51574 454 ft 152 kts 215°
2026-05-06 17:28 44.86832 -63.52449 1095 ft 151 kts 215°
2026-05-06 17:28 44.85971 -63.53362 1888 ft 153 kts 217°
2026-05-06 17:28 44.85113 -63.54292 2548 ft 162 kts 217°
2026-05-06 17:28 44.84138 -63.55320 2766 ft 186 kts 216°
2026-05-06 17:29 44.83054 -63.56469 3100 ft 203 kts 217°
2026-05-06 17:29 44.81875 -63.57752 3431 ft 224 kts 221°
2026-05-06 17:29 44.80792 -63.59316 4101 ft 228 kts 226°
2026-05-06 17:29 44.79731 -63.61004 4966 ft 231 kts 228°
2026-05-06 17:30 44.78659 -63.62710 5692 ft 235 kts 228°
2026-05-06 17:30 44.77567 -63.64443 6414 ft 238 kts 229°
2026-05-06 17:30 44.76456 -63.66194 7064 ft 241 kts 229°
2026-05-06 17:30 44.75317 -63.67972 7735 ft 247 kts 228°
2026-05-06 17:31 44.74152 -63.69782 8451 ft 251 kts 228°
2026-05-06 17:31 44.72971 -63.71611 9169 ft 254 kts 228°
2026-05-06 17:31 44.71773 -63.73460 9850 ft 257 kts 228°
2026-05-06 17:31 44.70555 -63.75339 10410 ft 267 kts 228°
2026-05-06 17:32 44.69263 -63.77322 10577 ft 290 kts 227°
2026-05-06 17:32 44.67849 -63.79487 10778 ft 310 kts 227°
2026-05-06 17:32 44.66369 -63.81753 11255 ft 318 kts 227°
2026-05-06 17:32 44.64868 -63.84045 11957 ft 320 kts 227°
2026-05-06 17:33 44.63358 -63.86352 12636 ft 321 kts 227°
2026-05-06 17:33 44.61835 -63.88676 13263 ft 326 kts 227°
2026-05-06 17:33 44.60291 -63.91028 13889 ft 329 kts 227°
2026-05-06 17:33 44.58734 -63.93397 14495 ft 333 kts 227°
2026-05-06 17:34 44.57174 -63.95770 15053 ft 337 kts 227°
2026-05-06 17:34 44.55577 -63.98197 15633 ft 340 kts 227°
2026-05-06 17:34 44.53962 -64.00649 16170 ft 344 kts 227°
2026-05-06 17:34 44.52330 -64.03125 16772 ft 346 kts 227°
2026-05-06 17:35 44.50685 -64.05620 17302 ft 351 kts 227°
2026-05-06 17:35 44.49031 -64.08126 17828 ft 354 kts 227°
2026-05-06 17:35 44.47340 -64.10686 18320 ft 358 kts 227°
2026-05-06 17:36 44.43864 -64.15744 19334 ft 364 kts 219°
2026-05-06 17:36 44.41771 -64.17685 19803 ft 369 kts 210°
2026-05-06 17:36 44.39408 -64.19150 20242 ft 375 kts 200°
2026-05-06 17:36 44.36855 -64.20028 20692 ft 380 kts 194°
2026-05-06 17:37 44.34250 -64.20775 21111 ft 384 kts 194°
2026-05-06 17:37 44.31613 -64.21499 21573 ft 386 kts 194°
2026-05-06 17:37 44.28974 -64.22230 21954 ft 390 kts 194°
2026-05-06 17:37 44.26304 -64.22994 22312 ft 393 kts 195°
2026-05-06 17:38 44.23623 -64.23779 22709 ft 395 kts 194°
2026-05-06 17:38 44.20916 -64.24547 23061 ft 399 kts 194°
2026-05-06 17:38 44.18224 -64.25302 23445 ft 401 kts 194°
2026-05-06 17:38 44.15475 -64.26074 23823 ft 404 kts 194°
2026-05-06 17:39 44.12713 -64.26854 24181 ft 407 kts 194°
2026-05-06 17:39 44.09932 -64.27644 24525 ft 409 kts 194°
2026-05-06 17:39 44.07131 -64.28443 24849 ft 412 kts 194°
2026-05-06 17:39 44.04313 -64.29248 25183 ft 415 kts 194°
2026-05-06 17:40 44.01475 -64.30060 25504 ft 418 kts 195°
2026-05-06 17:40 43.98617 -64.30878 25828 ft 420 kts 195°
2026-05-06 17:40 43.95745 -64.31699 26109 ft 423 kts 195°
2026-05-06 17:40 43.92888 -64.32515 26375 ft 426 kts 195°
2026-05-06 17:41 43.89974 -64.33346 26664 ft 429 kts 195°
2026-05-06 17:41 43.87044 -64.34181 26962 ft 431 kts 195°
2026-05-06 17:41 43.84101 -64.35019 27243 ft 433 kts 195°
2026-05-06 17:41 43.81140 -64.35861 27509 ft 435 kts 195°
2026-05-06 17:42 43.78165 -64.36706 27775 ft 438 kts 195°
2026-05-06 17:42 43.75177 -64.37554 28032 ft 440 kts 195°
2026-05-06 17:42 43.72170 -64.38407 28281 ft 442 kts 195°
2026-05-06 17:42 43.69149 -64.39262 28542 ft 444 kts 195°
2026-05-06 17:43 43.66161 -64.40108 28776 ft 446 kts 195°
2026-05-06 17:43 43.63114 -64.40969 28990 ft 448 kts 195°
2026-05-06 17:43 43.60052 -64.41833 29260 ft 449 kts 195°
2026-05-06 17:43 43.56995 -64.42694 29617 ft 448 kts 195°
2026-05-06 17:44 43.53950 -64.43550 29974 ft 446 kts 195°
2026-05-06 17:44 43.50907 -64.44406 30252 ft 447 kts 195°
2026-05-06 17:44 43.47859 -64.45263 30516 ft 447 kts 195°
2026-05-06 17:44 43.44816 -64.46118 30836 ft 446 kts 195°
2026-05-06 17:45 43.41780 -64.46969 31176 ft 444 kts 195°
2026-05-06 17:45 43.38794 -64.47806 31450 ft 444 kts 195°
2026-05-06 17:45 43.35766 -64.48654 31696 ft 444 kts 195°
2026-05-06 17:45 43.32739 -64.49501 31980 ft 443 kts 195°
2026-05-06 17:46 43.29721 -64.50344 32277 ft 442 kts 195°
2026-05-06 17:46 43.26705 -64.51186 32524 ft 442 kts 195°
2026-05-06 17:46 43.23687 -64.52028 32740 ft 443 kts 195°
2026-05-06 17:46 43.20672 -64.52869 32985 ft 442 kts 195°
2026-05-06 17:47 43.17662 -64.53706 33243 ft 441 kts 195°
2026-05-06 17:47 43.14696 -64.54531 33477 ft 441 kts 195°
2026-05-06 17:47 43.11692 -64.55365 33724 ft 440 kts 195°
2026-05-06 17:47 43.08691 -64.56198 33928 ft 440 kts 195°
2026-05-06 17:48 43.05688 -64.57031 34066 ft 442 kts 195°
2026-05-06 17:48 43.02665 -64.57870 34066 ft 444 kts 195°
2026-05-06 17:48 42.96618 -64.59541 34070 ft 441 kts 195°
2026-05-06 17:49 42.90618 -64.61195 34073 ft 439 kts 195°
2026-05-06 17:49 42.84683 -64.62829 34072 ft 437 kts 195°
2026-05-06 17:50 42.78723 -64.64468 34077 ft 437 kts 195°
2026-05-06 17:50 42.72760 -64.66105 34073 ft 437 kts 195°
2026-05-06 17:51 42.66786 -64.67741 34077 ft 439 kts 195°
2026-05-06 17:51 42.60790 -64.69380 34076 ft 441 kts 195°
2026-05-06 17:52 42.54805 -64.71013 34074 ft 443 kts 195°
2026-05-06 17:52 42.48757 -64.72659 34075 ft 444 kts 195°
2026-05-06 17:53 42.42683 -64.74309 34075 ft 446 kts 195°
2026-05-06 17:53 42.36589 -64.75961 34076 ft 447 kts 195°
2026-05-06 17:54 42.30528 -64.77601 34075 ft 448 kts 195°
2026-05-06 17:54 42.24421 -64.79250 34070 ft 447 kts 195°
2026-05-06 17:55 42.18316 -64.80895 34074 ft 447 kts 195°
2026-05-06 17:55 42.12227 -64.82533 34073 ft 446 kts 195°
2026-05-06 17:56 42.06192 -64.84153 34069 ft 445 kts 195°
2026-05-06 17:56 42.00129 -64.85779 34073 ft 444 kts 195°
2026-05-06 17:57 41.94076 -64.87398 34069 ft 443 kts 195°
2026-05-06 17:57 41.88285 -64.89960 34084 ft 436 kts 207°
2026-05-06 17:58 41.82718 -64.93211 34078 ft 437 kts 207°
2026-05-06 17:58 41.77182 -64.96448 34074 ft 437 kts 207°
2026-05-06 17:59 41.71586 -64.99669 34073 ft 438 kts 206°
2026-05-06 17:59 41.65968 -65.02870 34073 ft 439 kts 206°
2026-05-06 18:00 41.61288 -65.05526 34065 ft 440 kts 206°
2026-05-06 18:00 41.54728 -65.09242 34052 ft 441 kts 206°
2026-05-06 18:01 41.49072 -65.12440 34030 ft 442 kts 206°
2026-05-06 18:01 41.44368 -65.15095 34040 ft 442 kts 206°
2026-05-06 18:02 41.38713 -65.18282 34039 ft 441 kts 206°
2026-05-06 18:02 41.32136 -65.21981 34038 ft 441 kts 206°
2026-05-06 18:03 41.26485 -65.25153 34030 ft 441 kts 206°
2026-05-06 18:03 41.21787 -65.27785 34024 ft 441 kts 206°
2026-05-06 18:04 41.16138 -65.30945 34029 ft 440 kts 206°
2026-05-06 18:04 41.10491 -65.34098 34029 ft 440 kts 206°
2026-05-06 18:05 41.04845 -65.37244 34027 ft 440 kts 206°
2026-05-06 18:05 40.99199 -65.40384 34025 ft 440 kts 206°
2026-05-06 18:06 40.93589 -65.43499 34025 ft 440 kts 206°
2026-05-06 18:06 40.87935 -65.46632 34031 ft 441 kts 206°
2026-05-06 18:07 40.82271 -65.49765 34031 ft 441 kts 206°
2026-05-06 18:07 40.76603 -65.52895 34031 ft 442 kts 206°
2026-05-06 18:08 40.70957 -65.56006 34031 ft 443 kts 206°
2026-05-06 18:08 40.65265 -65.59138 34027 ft 444 kts 206°
2026-05-06 18:09 40.59558 -65.62271 34028 ft 445 kts 206°
2026-05-06 18:09 40.53840 -65.65404 34027 ft 446 kts 206°
2026-05-06 18:10 40.48150 -65.68517 34030 ft 446 kts 206°
2026-05-06 18:10 40.42408 -65.71652 34030 ft 447 kts 206°
2026-05-06 18:11 40.36661 -65.74784 34024 ft 448 kts 206°
2026-05-06 18:11 40.30904 -65.77915 34031 ft 448 kts 206°
2026-05-06 18:12 40.25178 -65.81025 34030 ft 449 kts 206°
2026-05-06 18:12 40.19410 -65.84151 34030 ft 449 kts 206°
2026-05-06 18:13 40.13640 -65.87272 34038 ft 449 kts 206°
2026-05-06 18:13 40.07868 -65.90389 34035 ft 449 kts 206°
2026-05-06 18:14 40.02135 -65.93479 34036 ft 449 kts 206°
2026-05-06 18:14 39.96357 -65.96587 34030 ft 449 kts 206°
2026-05-06 18:15 39.90579 -65.99690 34028 ft 449 kts 207°
2026-05-06 18:15 39.84800 -66.02788 34032 ft 449 kts 207°
2026-05-06 18:16 39.79015 -66.05883 34040 ft 449 kts 207°
2026-05-06 18:16 39.73268 -66.08953 34039 ft 450 kts 207°
2026-05-06 18:17 39.67474 -66.12042 34033 ft 451 kts 207°
2026-05-06 18:17 39.61669 -66.15131 34031 ft 451 kts 207°
2026-05-06 18:18 39.55857 -66.18218 34029 ft 452 kts 207°
2026-05-06 18:18 39.50076 -66.21284 34031 ft 452 kts 207°
2026-05-06 18:19 39.44251 -66.24367 34031 ft 453 kts 207°
2026-05-06 18:19 39.38419 -66.27448 34025 ft 453 kts 207°
2026-05-06 18:20 39.32579 -66.30527 34032 ft 453 kts 207°
2026-05-06 18:20 39.26775 -66.33583 34022 ft 454 kts 207°
2026-05-06 18:21 39.20925 -66.36657 34028 ft 454 kts 207°
2026-05-06 18:21 39.15070 -66.39728 34032 ft 454 kts 207°
2026-05-06 18:22 39.09209 -66.42797 34025 ft 455 kts 207°
2026-05-06 18:22 39.03378 -66.45844 34030 ft 455 kts 207°
2026-05-06 18:23 38.97503 -66.48910 34024 ft 456 kts 207°
2026-05-06 18:23 38.91622 -66.51972 34032 ft 456 kts 207°
2026-05-06 18:24 38.85732 -66.55034 34031 ft 457 kts 207°
2026-05-06 18:24 38.79836 -66.58094 34032 ft 457 kts 207°
2026-05-06 18:25 38.73969 -66.61134 34022 ft 458 kts 207°
2026-05-06 18:25 38.68059 -66.64191 34026 ft 459 kts 207°
2026-05-06 18:26 38.62322 -66.67643 34021 ft 451 kts 219°
2026-05-06 18:26 38.57466 -66.72555 34032 ft 444 kts 226°
2026-05-06 18:27 38.52761 -66.77600 34042 ft 445 kts 226°
2026-05-06 18:27 38.47999 -66.82657 34036 ft 446 kts 225°
2026-05-06 18:28 38.43209 -66.87693 34041 ft 446 kts 225°
2026-05-06 18:28 38.38406 -66.92714 34041 ft 446 kts 225°
2026-05-06 18:29 38.33600 -66.97728 34041 ft 447 kts 225°
2026-05-06 18:29 38.28825 -67.02702 34037 ft 447 kts 225°
2026-05-06 18:30 38.24016 -67.07703 34031 ft 446 kts 225°
2026-05-06 18:30 38.19206 -67.12698 34036 ft 446 kts 226°
2026-05-06 18:31 38.14400 -67.17678 34038 ft 446 kts 226°
2026-05-06 18:31 38.09623 -67.22621 34041 ft 446 kts 226°
2026-05-06 18:32 38.04814 -67.27589 34035 ft 446 kts 226°
2026-05-06 18:32 38.00004 -67.32548 34038 ft 446 kts 226°
2026-05-06 18:33 37.95194 -67.37499 34034 ft 446 kts 226°
2026-05-06 18:33 37.90400 -67.42425 34044 ft 447 kts 226°
2026-05-06 18:34 37.85563 -67.47387 34049 ft 448 kts 226°
2026-05-06 18:34 37.80713 -67.52353 34048 ft 449 kts 226°
2026-05-06 18:35 37.75851 -67.57323 34047 ft 450 kts 226°
2026-05-06 18:35 37.70980 -67.62292 34047 ft 450 kts 226°
2026-05-06 18:36 37.66133 -67.67228 34045 ft 451 kts 226°
2026-05-06 18:36 37.61251 -67.72192 34047 ft 451 kts 226°
2026-05-06 18:37 37.56370 -67.77146 34045 ft 450 kts 226°
2026-05-06 18:37 37.51487 -67.82094 34042 ft 450 kts 226°
2026-05-06 18:38 37.46642 -67.86994 34047 ft 450 kts 226°
2026-05-06 18:38 37.41764 -67.91920 34046 ft 449 kts 226°
2026-05-06 18:39 37.36886 -67.96837 34045 ft 449 kts 226°
2026-05-06 18:40 37.29571 -68.04195 34048 ft 449 kts 226°
2026-05-06 18:40 37.24729 -68.09056 34054 ft 448 kts 226°
2026-05-06 18:41 37.19854 -68.13940 34055 ft 448 kts 226°
2026-05-06 18:41 37.14978 -68.18819 34055 ft 448 kts 226°
2026-05-06 18:42 37.10098 -68.23692 34056 ft 449 kts 226°
2026-05-06 18:42 37.05213 -68.28563 34056 ft 449 kts 226°
2026-05-06 18:43 37.00354 -68.33399 34055 ft 450 kts 226°
2026-05-06 18:43 36.95455 -68.38266 34053 ft 450 kts 226°
2026-05-06 18:44 36.90548 -68.43134 34057 ft 451 kts 226°
2026-05-06 18:44 36.85630 -68.48004 34057 ft 451 kts 226°
2026-05-06 18:45 36.80736 -68.52842 34056 ft 452 kts 226°
2026-05-06 18:45 36.75807 -68.57707 34056 ft 452 kts 226°
2026-05-06 18:46 36.70865 -68.62575 34056 ft 453 kts 226°